Regional Weather Roundup
Issued by NWS

Home | Current Version | Previous Version | Text Only | Print | Product List | Glossary Off
Versions: 1 2 3 4 5 6 7 8 9 10 11 12 13 14 15 16 17 18 19 20 21 22 23 24 25 26 27 28 29 30 31 32 33 34 35 36 37 38 39 40 41 42 43 44 45 46 47 48 49 50

000
ASUS43 KLSX 250259
RWRMO

WEATHER SUMMARY FOR MISSOURI
NATIONAL WEATHER SERVICE SPRINGFIELD MO
900 PM CST SAT JAN 24 2015

NOTE: "FAIR" INDICATES FEW OR NO CLOUDS BELOW 12,000 FEET WITH NO
       SIGNIFICANT WEATHER AND/OR OBSTRUCTIONS TO VISIBILITY.
       CURRENT SKY AND/OR WEATHER CONDITIONS ARE NOT AVAILABLE FOR
       CHILLICOTHE AND FARMINGTON.

MOZ001>031-035>038-043-044-053-054-250400-
...NORTHERN AND WESTERN MISSOURI...

CITY           SKY/WX    TMP DP  RH WIND       PRES   REMARKS
KANSAS CTY INT CLOUDY    51  29  42 W14       29.70S
KANSAS C DTWN  CLOUDY    55  29  36 W15G22    29.70S
LEE`S SUMMIT   CLOUDY    52  28  39 SW13      29.71F
ST JOSEPH      LGT RAIN  47  35  63 W14       29.70S
CHILLICOTHE      N/A     47  30  51 SW5       29.67F
KIRKSVILLE     CLOUDY    46  31  55 SW7       29.65F

$$
MOZ066>068-077>081-088>096-101>105-250400-
...SOUTHWEST MISSOURI...

CITY           SKY/WX    TMP DP  RH WIND       PRES   REMARKS
SPRINGFIELD    CLOUDY    48  32  53 SW15      29.81F
JOPLIN         MOCLDY    49  31  49 S13       29.83F

$$
MOZ032>034-039>042-045>050-055>058-069>072-250400-
...CENTRAL MISSOURI...

CITY           SKY/WX    TMP DP  RH WIND       PRES   REMARKS
COLUMBIA       MOCLDY    47  32  56 SW9       29.71F
JEFFERSON CITY CLOUDY    52  32  46 SW10      29.73F
ROLLA          CLOUDY    46  31  55 S12       29.74F
SEDALIA        CLOUDY    50  33  52 SW14      29.72F
OSAGE BEACH    CLOUDY    52  30  43 SW10      29.76F

$$
MOZ051-052-059>065-250400-
...EAST CENTRAL MISSOURI...

CITY           SKY/WX    TMP DP  RH WIND       PRES   REMARKS
ST LOUIS INTL  CLOUDY    51  31  46 SW10      29.74F
SPIRIT OF STL  CLOUDY    52  31  44 SW14      29.73F
ST CHARLES     CLOUDY    39  32  76 CALM      29.73F

$$
MOZ072>076-082>087-097>100-106>115-250400-
...SOUTH CENTRAL AND SOUTHEAST MISSOURI...

CITY           SKY/WX    TMP DP  RH WIND       PRES   REMARKS
CAPE GIRARDEAU MOCLDY    44  35  70 SW7       29.83F
FARMINGTON     CLOUDY    48  28  46 MISG      29.82F
POPLAR BLUFF   PTCLDY    42  33  70 SW9       29.84F
WEST PLAINS    CLOUDY    46  30  53 SW8       29.85S

$$


USA.gov is the U.S. government's official web portal to all federal, state and local government web resources and services.